Hot Springs, AR

8:28 PM CDT on July 23, 2017 (GMT -0500)
Hot Springs Memorial

Weather History for KHOT - May, 2013

Change the Weather History Date:

Wednesday, May 22, 2013

  Actual Average Record
Temperature  
Mean Temperature 70 °F -  
Max Temperature 82 °F 81 °F 93 °F (2005)
Min Temperature 59 °F 60 °F 48 °F (1981)
Cooling Degree Days 6    
Growing Degree Days 20 (Base 50)    
Moisture  
Dew Point 60 °F    
Average Humidity 82    
Maximum Humidity 100    
Minimum Humidity 45    
Precipitation  
Precipitation 0.00 in - - ()
Sea Level Pressure  
Sea Level Pressure 29.87 in    
Wind  
Wind Speed 3 mph (West)    
Max Wind Speed 10 mph    
Max Gust Speed -    
Visibility 8 miles    
Events Fog , Rain    
Averages and records for this station are not official NWS values.
T = Trace of Precipitation, MM = Missing Value Source: NWS Daily Summary

Daily Weather History Graph

Daily Weather History Graph

Search for Another Location

Airport or City:

Trip Planner

Search our weather history database for the weather conditions in past years. The results will help you decide how hot, cold, wet, or windy it might be!

Date:

Astronomy

May. 22, 2013 Rise Set
Actual Time 6:05 AM CDT 8:13 PM CDT
Civil Twilight 5:36 AM CDT 8:41 PM CDT
Nautical Twilight 5:02 AM CDT 9:16 PM CDT
Astronomical Twilight 4:25 AM CDT 9:53 PM CDT
Moon 5:41 PM CDT (5/22) 4:02 AM CDT (5/22)
Length of Visible Light 15h 04m
Length of Day
14h 08m
Waxing Gibbous, 91% of the Moon is Illuminated
May 22
Waxing Gibbous
May 24
Full
May 31
Last Quarter
Jun 8
New
Jun 16
First Quarter

Hourly Weather History & Observations

Time (CDT) Temp. Heat Index Dew Point Humidity Pressure Visibility Wind Dir Wind Speed Gust Speed Precip Events Conditions
12:53 AM 63.0 °F - 61.0 °F 93% 29.84 in 10.0 mi NW 3.5 mph - 0.00 in Rain Light Rain
1:16 AM 62.6 °F - 60.8 °F 94% 29.85 in 10.0 mi WNW 3.5 mph - 0.00 in   Overcast
1:53 AM 63.0 °F - 61.0 °F 93% 29.84 in 10.0 mi WNW 4.6 mph - 0.00 in   Overcast
2:21 AM 62.6 °F - 60.8 °F 94% 29.86 in 10.0 mi West 4.6 mph - N/A   Overcast
2:53 AM 63.0 °F - 61.0 °F 93% 29.84 in 10.0 mi Calm Calm - N/A   Overcast
3:53 AM 62.1 °F - 60.1 °F 93% 29.84 in 10.0 mi Calm Calm - N/A   Scattered Clouds
4:30 AM 60.8 °F - 59.0 °F 94% 29.85 in 9.0 mi Calm Calm - N/A   Partly Cloudy
4:36 AM 60.8 °F - 59.0 °F 94% 29.85 in 1.8 mi Calm Calm - N/A   Partly Cloudy
4:53 AM 60.1 °F - 59.0 °F 96% 29.84 in 1.8 mi Calm Calm - N/A   Partly Cloudy
5:10 AM 60.8 °F - 59.0 °F 94% 29.85 in 1.0 mi Calm Calm - N/A   Mist
5:20 AM 60.8 °F - 59.0 °F 94% 29.85 in 2.5 mi West 3.5 mph - N/A   Partly Cloudy
5:27 AM 60.8 °F - 59.0 °F 94% 29.85 in 9.0 mi Calm Calm - N/A   Partly Cloudy
5:44 AM 60.8 °F - 59.0 °F 94% 29.86 in 10.0 mi Calm Calm - N/A   Mostly Cloudy
5:53 AM 59.0 °F - 59.0 °F 100% 29.85 in 10.0 mi Calm Calm - N/A   Mostly Cloudy
6:13 AM 59.0 °F - 57.2 °F 94% 29.86 in 5.0 mi Calm Calm - N/A   Scattered Clouds
6:17 AM 59.0 °F - 57.2 °F 94% 29.86 in 1.0 mi Calm Calm - N/A   Mist
6:19 AM 59.0 °F - 57.2 °F 94% 29.87 in 0.8 mi Calm Calm - N/A   Mist
6:27 AM 59.0 °F - 57.2 °F 94% 29.87 in 0.5 mi Calm Calm - N/A Fog Fog
6:38 AM 59.0 °F - 57.2 °F 94% 29.87 in 2.5 mi Calm Calm - N/A   Mostly Cloudy
6:45 AM 60.8 °F - 59.0 °F 94% 29.87 in 10.0 mi Calm Calm - N/A   Mostly Cloudy
6:53 AM 60.1 °F - 59.0 °F 96% 29.87 in 9.0 mi Calm Calm - N/A   Scattered Clouds
7:31 AM 62.6 °F - 60.8 °F 94% 29.89 in 10.0 mi Calm Calm - N/A   Mostly Cloudy
7:53 AM 62.1 °F - 61.0 °F 96% 29.88 in 10.0 mi West 4.6 mph - N/A   Overcast
8:53 AM 64.0 °F - 60.1 °F 87% 29.89 in 10.0 mi West 3.5 mph - N/A   Overcast
9:17 AM 64.4 °F - 59.0 °F 83% 29.91 in 10.0 mi West 5.8 mph - N/A   Overcast
9:53 AM 64.9 °F - 59.0 °F 81% 29.92 in 10.0 mi WNW 4.6 mph - N/A   Overcast
10:53 AM 68.0 °F - 59.0 °F 73% 29.92 in 10.0 mi Calm Calm - N/A   Scattered Clouds
11:53 AM 71.1 °F - 61.0 °F 70% 29.91 in 10.0 mi South 5.8 mph - N/A   Clear
12:53 PM 75.0 °F - 61.0 °F 62% 29.90 in 10.0 mi SSW 4.6 mph - N/A   Clear
1:53 PM 78.1 °F - 60.1 °F 54% 29.89 in 10.0 mi West 4.6 mph - N/A   Clear
2:53 PM 80.1 °F 81.2 °F 62.1 °F 54% 29.88 in 10.0 mi SSW 8.1 mph - N/A   Scattered Clouds
3:53 PM 81.0 °F 81.6 °F 60.1 °F 49% 29.87 in 10.0 mi WSW 9.2 mph - N/A   Partly Cloudy
4:53 PM 82.0 °F 82.1 °F 59.0 °F 45% 29.86 in 10.0 mi West 9.2 mph - N/A   Clear
5:53 PM 81.0 °F 81.1 °F 57.9 °F 45% 29.86 in 10.0 mi SW 10.4 mph - N/A   Clear
6:53 PM 80.1 °F 80.7 °F 59.0 °F 48% 29.86 in 10.0 mi SW 8.1 mph - N/A   Clear
7:53 PM 75.9 °F - 60.1 °F 58% 29.88 in 10.0 mi WSW 3.5 mph - N/A   Clear
8:53 PM 71.1 °F - 61.0 °F 70% 29.89 in 10.0 mi Calm Calm - N/A   Clear
9:53 PM 66.9 °F - 61.0 °F 81% 29.92 in 10.0 mi Calm Calm - N/A   Clear
10:53 PM 66.9 °F - 62.1 °F 84% 29.94 in 10.0 mi NW 3.5 mph - N/A   Clear
11:53 PM 66.9 °F - 61.0 °F 81% 29.95 in 10.0 mi Calm Calm - N/A   Clear